Time,TemperatureF,DewpointF,PressureIn,WindDirection,WindDirectionDegrees,WindSpeedMPH,WindSpeedGustMPH,Humidity,HourlyPrecipIn,Conditions,Clouds,dailyrainin,SoftwareType,DateUTC
2013-08-23 00:01:00,83.3,71.2,29.92,East,90,0.0,0.0,67,0.00,,---,0.04,VWS V13.01,2013-08-23 04:01:00,
2013-08-23 00:06:00,83.3,71.2,29.92,East,90,0.0,0.0,67,0.00,,---,0.04,VWS V13.01,2013-08-23 04:06:00,
2013-08-23 00:11:00,83.3,71.2,29.92,East,90,0.0,0.0,67,0.00,,---,0.04,VWS V13.01,2013-08-23 04:11:00,
2013-08-23 00:16:00,83.3,71.2,29.92,East,90,0.0,0.0,67,0.00,,---,0.04,VWS V13.01,2013-08-23 04:16:00,
2013-08-23 00:21:00,83.3,71.6,29.92,East,90,0.0,0.0,68,0.00,,---,0.04,VWS V13.01,2013-08-23 04:21:00,
2013-08-23 00:26:00,83.3,72.1,29.92,East,90,0.0,0.0,69,0.00,,---,0.04,VWS V13.01,2013-08-23 04:26:00,
2013-08-23 00:31:00,82.9,71.7,29.92,East,90,0.0,0.0,69,0.00,,---,0.04,VWS V13.01,2013-08-23 04:31:00,
2013-08-23 00:36:00,83.1,71.9,29.92,East,90,0.0,0.0,69,0.00,,---,0.04,VWS V13.01,2013-08-23 04:36:00,
2013-08-23 00:41:00,82.8,71.6,29.91,East,90,0.0,0.0,69,0.00,,---,0.04,VWS V13.01,2013-08-23 04:41:00,
2013-08-23 00:46:00,82.6,71.4,29.91,East,90,0.0,0.0,69,0.00,,---,0.04,VWS V13.01,2013-08-23 04:46:00,
2013-08-23 00:51:00,82.6,71.4,29.91,East,90,0.0,0.0,69,0.00,,---,0.04,VWS V13.01,2013-08-23 04:51:00,
2013-08-23 00:56:00,82.6,71.8,29.91,East,90,0.0,0.0,70,0.00,,---,0.04,VWS V13.01,2013-08-23 04:56:00,
2013-08-23 01:01:00,82.4,71.6,29.91,East,90,0.0,0.0,70,0.00,,---,0.04,VWS V13.01,2013-08-23 05:01:00,
2013-08-23 01:06:00,82.2,71.5,29.91,East,90,0.0,0.0,70,0.00,,---,0.04,VWS V13.01,2013-08-23 05:06:00,
2013-08-23 01:11:00,82.2,71.5,29.90,East,90,0.0,0.0,70,0.00,,---,0.04,VWS V13.01,2013-08-23 05:11:00,
2013-08-23 01:16:00,81.9,71.1,29.90,East,90,0.0,0.0,70,0.00,,---,0.04,VWS V13.01,2013-08-23 05:16:00,
2013-08-23 01:21:00,82.0,71.3,29.90,East,90,0.0,0.0,70,0.00,,---,0.04,VWS V13.01,2013-08-23 05:21:00,
2013-08-23 01:26:00,81.9,71.1,29.90,East,90,0.0,0.0,70,0.00,,---,0.04,VWS V13.01,2013-08-23 05:26:00,
2013-08-23 01:31:00,81.7,70.9,29.90,East,90,0.0,0.0,70,0.00,,---,0.04,VWS V13.01,2013-08-23 05:31:00,
2013-08-23 01:36:00,81.7,70.9,29.90,East,90,0.0,0.0,70,0.00,,---,0.04,VWS V13.01,2013-08-23 05:36:00,
2013-08-23 01:41:00,81.5,70.8,29.89,East,90,0.0,0.0,70,0.00,,---,0.04,VWS V13.01,2013-08-23 05:41:00,
2013-08-23 01:46:00,81.5,70.8,29.89,East,90,0.0,0.0,70,0.00,,---,0.04,VWS V13.01,2013-08-23 05:46:00,
2013-08-23 01:51:00,81.5,70.8,29.89,East,90,0.0,0.0,70,0.00,,---,0.04,VWS V13.01,2013-08-23 05:51:00,
2013-08-23 01:56:00,81.3,70.6,29.89,East,90,0.0,0.0,70,0.00,,---,0.04,VWS V13.01,2013-08-23 05:56:00,
2013-08-23 02:01:00,81.3,70.6,29.89,East,90,0.0,0.0,70,0.00,,---,0.04,VWS V13.01,2013-08-23 06:01:00,
2013-08-23 02:06:00,81.3,70.6,29.89,East,90,0.0,0.0,70,0.00,,---,0.04,VWS V13.01,2013-08-23 06:06:00,
2013-08-23 02:11:00,81.3,70.6,29.89,East,90,0.0,0.0,70,0.00,,---,0.04,VWS V13.01,2013-08-23 06:11:00,
2013-08-23 02:16:00,81.3,70.6,29.89,East,90,0.0,0.0,70,0.00,,---,0.04,VWS V13.01,2013-08-23 06:16:00,
2013-08-23 02:21:00,81.1,70.4,29.88,East,90,0.0,0.0,70,0.00,,---,0.04,VWS V13.01,2013-08-23 06:21:00,
2013-08-23 02:26:00,81.0,70.3,29.88,East,90,0.0,0.0,70,0.00,,---,0.04,VWS V13.01,2013-08-23 06:26:00,
2013-08-23 02:31:00,81.0,70.3,29.88,East,90,0.0,0.0,70,0.00,,---,0.04,VWS V13.01,2013-08-23 06:31:00,
2013-08-23 02:36:00,81.0,70.3,29.88,East,90,0.0,0.0,70,0.00,,---,0.04,VWS V13.01,2013-08-23 06:36:00,
2013-08-23 02:41:00,80.8,70.5,29.87,East,90,0.0,0.0,71,0.00,,---,0.04,VWS V13.01,2013-08-23 06:41:00,
2013-08-23 02:46:00,81.0,70.7,29.87,East,90,0.0,0.0,71,0.00,,---,0.04,VWS V13.01,2013-08-23 06:46:00,
2013-08-23 02:51:00,80.8,70.5,29.87,East,90,0.0,0.0,71,0.00,,---,0.04,VWS V13.01,2013-08-23 06:51:00,
2013-08-23 02:56:00,80.6,70.3,29.87,East,90,0.0,0.0,71,0.00,,---,0.04,VWS V13.01,2013-08-23 06:56:00,
2013-08-23 03:01:00,80.6,70.3,29.87,East,90,0.0,0.0,71,0.00,,---,0.04,VWS V13.01,2013-08-23 07:01:00,
2013-08-23 03:06:00,80.2,70.0,29.87,East,90,0.0,0.0,71,0.00,,---,0.02,VWS V13.01,2013-08-23 07:06:00,
2013-08-23 03:11:00,80.2,70.0,29.87,East,90,0.0,0.0,71,0.00,,---,0.02,VWS V13.01,2013-08-23 07:11:00,
2013-08-23 03:16:00,80.2,70.0,29.86,East,90,0.0,0.0,71,0.00,,---,0.02,VWS V13.01,2013-08-23 07:16:00,
2013-08-23 03:21:00,80.1,69.8,29.86,East,90,0.0,0.0,71,0.00,,---,0.02,VWS V13.01,2013-08-23 07:21:00,
2013-08-23 03:26:00,80.1,69.8,29.86,East,90,0.0,0.0,71,0.00,,---,0.02,VWS V13.01,2013-08-23 07:26:00,
2013-08-23 03:31:00,79.9,70.1,29.86,East,90,0.0,0.0,72,0.00,,---,0.02,VWS V13.01,2013-08-23 07:31:00,
2013-08-23 03:36:00,80.1,70.2,29.86,East,90,0.0,0.0,72,0.00,,---,0.02,VWS V13.01,2013-08-23 07:36:00,
2013-08-23 03:41:00,80.1,70.2,29.86,East,90,0.0,0.0,72,0.00,,---,0.02,VWS V13.01,2013-08-23 07:41:00,
2013-08-23 03:46:00,80.1,70.6,29.86,East,90,0.0,0.0,73,0.00,,---,0.02,VWS V13.01,2013-08-23 07:46:00,
2013-08-23 03:51:00,80.1,70.6,29.85,East,90,0.0,0.0,73,0.00,,---,0.02,VWS V13.01,2013-08-23 07:51:00,
2013-08-23 03:56:00,79.9,70.5,29.85,East,90,0.0,0.0,73,0.00,,---,0.02,VWS V13.01,2013-08-23 07:56:00,
2013-08-23 04:01:00,79.9,70.5,29.85,East,90,0.0,0.0,73,0.00,,---,0.02,VWS V13.01,2013-08-23 08:01:00,
2013-08-23 04:06:00,79.9,70.5,29.85,East,90,0.0,0.0,73,0.00,,---,0.02,VWS V13.01,2013-08-23 08:06:00,
2013-08-23 04:11:00,79.9,71.2,29.85,East,90,0.0,0.0,75,0.00,,---,0.02,VWS V13.01,2013-08-23 08:11:00,
2013-08-23 04:16:00,79.9,71.2,29.85,East,90,0.0,0.0,75,0.00,,---,0.02,VWS V13.01,2013-08-23 08:16:00,
2013-08-23 04:21:00,79.9,71.2,29.85,East,90,0.0,0.0,75,0.00,,---,0.02,VWS V13.01,2013-08-23 08:21:00,
2013-08-23 04:26:00,80.1,71.4,29.85,East,90,0.0,0.0,75,0.00,,---,0.02,VWS V13.01,2013-08-23 08:26:00,
2013-08-23 04:31:00,80.1,71.4,29.85,East,90,0.0,0.0,75,0.00,,---,0.02,VWS V13.01,2013-08-23 08:31:00,
2013-08-23 04:36:00,80.1,71.4,29.85,East,90,0.0,0.0,75,0.00,,---,0.02,VWS V13.01,2013-08-23 08:36:00,
2013-08-23 04:41:00,80.1,71.4,29.85,East,90,0.0,0.0,75,0.00,,---,0.02,VWS V13.01,2013-08-23 08:41:00,
2013-08-23 04:46:00,80.1,71.4,29.85,East,90,0.0,0.0,75,0.00,,---,0.02,VWS V13.01,2013-08-23 08:46:00,
2013-08-23 04:51:00,80.2,71.6,29.85,East,90,0.0,0.0,75,0.00,,---,0.02,VWS V13.01,2013-08-23 08:51:00,
2013-08-23 04:56:00,80.2,71.6,29.85,East,90,0.0,0.0,75,0.00,,---,0.02,VWS V13.01,2013-08-23 08:56:00,
2013-08-23 05:01:00,80.2,72.0,29.85,East,90,0.0,0.0,76,0.00,,---,0.02,VWS V13.01,2013-08-23 09:01:00,
2013-08-23 05:06:00,80.1,71.8,29.85,East,90,0.0,0.0,76,0.00,,---,0.02,VWS V13.01,2013-08-23 09:06:00,
2013-08-23 05:11:00,80.1,71.8,29.85,East,90,0.0,0.0,76,0.00,,---,0.02,VWS V13.01,2013-08-23 09:11:00,
2013-08-23 05:16:00,80.1,71.4,29.85,East,90,0.0,0.0,75,0.00,,---,0.02,VWS V13.01,2013-08-23 09:16:00,
2013-08-23 05:21:00,79.9,71.2,29.85,East,90,0.0,0.0,75,0.00,,---,0.02,VWS V13.01,2013-08-23 09:21:00,
2013-08-23 05:26:00,79.9,71.2,29.85,East,90,0.0,0.0,75,0.00,,---,0.02,VWS V13.01,2013-08-23 09:26:00,
2013-08-23 05:31:00,79.7,71.1,29.86,East,90,0.0,0.0,75,0.00,,---,0.02,VWS V13.01,2013-08-23 09:31:00,
2013-08-23 05:36:00,79.7,71.5,29.86,East,90,0.0,0.0,76,0.00,,---,0.02,VWS V13.01,2013-08-23 09:36:00,
2013-08-23 05:41:00,79.7,71.5,29.86,East,90,0.0,0.0,76,0.00,,---,0.02,VWS V13.01,2013-08-23 09:41:00,
2013-08-23 05:46:00,79.5,71.3,29.86,East,90,0.0,0.0,76,0.00,,---,0.02,VWS V13.01,2013-08-23 09:46:00,
2013-08-23 05:51:00,79.5,71.3,29.86,East,90,0.0,0.0,76,0.00,,---,0.02,VWS V13.01,2013-08-23 09:51:00,
2013-08-23 05:56:00,79.3,71.1,29.86,East,90,0.0,0.0,76,0.00,,---,0.02,VWS V13.01,2013-08-23 09:56:00,
2013-08-23 06:01:00,79.3,71.1,29.86,East,90,0.0,0.0,76,0.00,,---,0.02,VWS V13.01,2013-08-23 10:01:00,
2013-08-23 06:06:00,79.2,70.9,29.86,East,90,0.0,0.0,76,0.00,,---,0.02,VWS V13.01,2013-08-23 10:06:00,
2013-08-23 06:11:00,79.2,70.9,29.86,East,90,0.0,0.0,76,0.00,,---,0.02,VWS V13.01,2013-08-23 10:11:00,
2013-08-23 06:16:00,79.2,70.9,29.85,East,90,0.0,0.0,76,0.00,,---,0.02,VWS V13.01,2013-08-23 10:16:00,
2013-08-23 06:21:00,79.2,70.9,29.85,East,90,0.0,0.0,76,0.00,,---,0.02,VWS V13.01,2013-08-23 10:21:00,
2013-08-23 06:26:00,79.2,70.9,29.86,East,90,0.0,0.0,76,0.00,,---,0.02,VWS V13.01,2013-08-23 10:26:00,
2013-08-23 06:31:00,79.2,70.9,29.85,East,90,0.0,0.0,76,0.00,,---,0.02,VWS V13.01,2013-08-23 10:31:00,
2013-08-23 06:36:00,79.0,70.8,29.85,East,90,0.0,0.0,76,0.00,,---,0.02,VWS V13.01,2013-08-23 10:36:00,
2013-08-23 06:41:00,79.2,70.9,29.85,East,90,0.0,0.0,76,0.00,,---,0.02,VWS V13.01,2013-08-23 10:41:00,
2013-08-23 06:46:00,79.2,70.9,29.86,East,90,0.0,0.0,76,0.00,,---,0.02,VWS V13.01,2013-08-23 10:46:00,
2013-08-23 06:51:00,79.0,71.2,29.86,East,90,0.0,0.0,77,0.00,,---,0.02,VWS V13.01,2013-08-23 10:51:00,
2013-08-23 06:56:00,79.2,71.3,29.86,East,90,0.0,0.0,77,0.00,,---,0.02,VWS V13.01,2013-08-23 10:56:00,
2013-08-23 07:01:00,79.2,71.3,29.86,East,90,0.0,0.0,77,0.00,,---,0.02,VWS V13.01,2013-08-23 11:01:00,
2013-08-23 07:06:00,79.2,71.3,29.86,East,90,0.0,0.0,77,0.00,,---,0.02,VWS V13.01,2013-08-23 11:06:00,
2013-08-23 07:11:00,79.2,71.3,29.86,East,90,0.0,0.0,77,0.00,,---,0.02,VWS V13.01,2013-08-23 11:11:00,
2013-08-23 07:16:00,79.2,71.3,29.86,East,90,0.0,0.0,77,0.00,,---,0.02,VWS V13.01,2013-08-23 11:16:00,
2013-08-23 07:21:00,79.5,71.7,29.86,East,90,0.0,0.0,77,0.00,,---,0.02,VWS V13.01,2013-08-23 11:21:00,
2013-08-23 07:26:00,80.1,72.2,29.86,East,90,0.0,0.0,77,0.00,,---,0.02,VWS V13.01,2013-08-23 11:26:00,
2013-08-23 07:30:00,81.3,73.4,29.86,East,90,0.0,0.0,77,0.00,,---,0.02,VWS V13.01,2013-08-23 11:30:00,
2013-08-23 07:35:00,82.8,74.8,29.87,East,90,0.0,0.0,77,0.00,,---,0.02,VWS V13.01,2013-08-23 11:35:00,
2013-08-23 07:40:00,84.6,76.6,29.87,East,90,0.0,0.0,77,0.00,,---,0.02,VWS V13.01,2013-08-23 11:40:00,
2013-08-23 07:45:00,86.4,78.3,29.87,East,90,0.0,0.0,77,0.00,,---,0.02,VWS V13.01,2013-08-23 11:45:00,
2013-08-23 07:50:00,87.1,79.0,29.87,East,90,0.0,0.0,77,0.00,,---,0.02,VWS V13.01,2013-08-23 11:50:00,
2013-08-23 07:55:00,87.4,79.3,29.88,East,90,0.0,0.0,77,0.00,,---,0.02,VWS V13.01,2013-08-23 11:55:00,
2013-08-23 08:00:00,88.0,79.9,29.88,East,90,0.0,0.0,77,0.00,,---,0.02,VWS V13.01,2013-08-23 12:00:00,
2013-08-23 08:05:00,87.6,79.5,29.88,East,90,0.0,0.0,77,0.00,,---,0.02,VWS V13.01,2013-08-23 12:05:00,
2013-08-23 08:10:00,87.3,79.2,29.88,East,90,0.0,0.0,77,0.00,,---,0.02,VWS V13.01,2013-08-23 12:10:00,
2013-08-23 08:15:00,86.7,78.7,29.88,East,90,0.0,0.0,77,0.00,,---,0.02,VWS V13.01,2013-08-23 12:15:00,
2013-08-23 08:20:00,86.2,78.1,29.88,East,90,0.0,0.0,77,0.00,,---,0.02,VWS V13.01,2013-08-23 12:20:00,
2013-08-23 08:25:00,85.6,77.6,29.88,East,90,0.0,0.0,77,0.00,,---,0.02,VWS V13.01,2013-08-23 12:25:00,
2013-08-23 08:30:00,85.6,77.6,29.88,East,90,0.0,0.0,77,0.00,,---,0.02,VWS V13.01,2013-08-23 12:30:00,
2013-08-23 08:35:00,86.2,73.5,29.88,East,90,0.0,0.0,66,0.00,,---,0.02,VWS V13.01,2013-08-23 12:35:00,
2013-08-23 08:40:00,86.4,73.7,29.88,East,90,0.0,0.0,66,0.00,,---,0.02,VWS V13.01,2013-08-23 12:40:00,
2013-08-23 08:45:00,86.9,74.2,29.88,East,90,0.0,0.0,66,0.00,,---,0.02,VWS V13.01,2013-08-23 12:45:00,
2013-08-23 08:50:00,87.4,74.7,29.89,ENE,68,0.0,0.0,66,0.00,,---,0.02,VWS V13.01,2013-08-23 12:50:00,
2013-08-23 08:55:00,88.0,75.2,29.88,SE,135,0.0,2.5,66,0.00,,---,0.02,VWS V13.01,2013-08-23 12:55:00,
2013-08-23 09:00:00,88.2,75.4,29.88,ESE,112,0.0,0.0,66,0.00,,---,0.02,VWS V13.01,2013-08-23 13:00:00,
2013-08-23 09:05:00,88.5,75.7,29.89,ENE,68,0.0,2.9,66,0.00,,---,0.02,VWS V13.01,2013-08-23 13:05:00,
2013-08-23 09:10:00,88.7,75.9,29.89,SSE,158,0.0,4.7,66,0.00,,---,0.02,VWS V13.01,2013-08-23 13:10:00,
2013-08-23 09:15:00,88.9,73.2,29.89,SE,135,1.8,4.7,60,0.00,,---,0.02,VWS V13.01,2013-08-23 13:15:00,
2013-08-23 09:20:00,89.1,73.4,29.89,ESE,112,0.0,4.7,60,0.00,,---,0.02,VWS V13.01,2013-08-23 13:20:00,
2013-08-23 09:25:00,89.1,72.4,29.89,ENE,68,0.0,4.7,58,0.00,,---,0.02,VWS V13.01,2013-08-23 13:25:00,
2013-08-23 09:30:00,89.4,72.2,29.89,SSE,158,0.2,4.7,57,0.00,,---,0.02,VWS V13.01,2013-08-23 13:30:00,
2013-08-23 09:35:00,89.4,72.2,29.89,ESE,112,0.0,4.7,57,0.00,,---,0.02,VWS V13.01,2013-08-23 13:35:00,
2013-08-23 09:40:00,89.8,72.5,29.89,ENE,68,2.0,4.7,57,0.00,,---,0.02,VWS V13.01,2013-08-23 13:40:00,
2013-08-23 09:45:00,90.0,72.7,29.89,ESE,112,3.1,6.3,57,0.00,,---,0.02,VWS V13.01,2013-08-23 13:45:00,
2013-08-23 09:50:00,90.0,71.1,29.89,SE,135,2.0,6.5,54,0.00,,---,0.02,VWS V13.01,2013-08-23 13:50:00,
2013-08-23 09:55:00,90.0,71.1,29.90,South,180,2.7,6.5,54,0.00,,---,0.02,VWS V13.01,2013-08-23 13:55:00,
2013-08-23 10:00:00,90.3,71.4,29.89,SE,135,2.5,2.7,54,0.00,,---,0.00,VWS V13.01,2013-08-23 14:00:00,
2013-08-23 10:05:00,90.3,71.4,29.90,East,90,5.8,6.3,54,0.00,,---,0.00,VWS V13.01,2013-08-23 14:05:00,
2013-08-23 10:10:00,90.1,71.3,29.90,ESE,112,5.4,9.0,54,0.00,,---,0.00,VWS V13.01,2013-08-23 14:10:00,
2013-08-23 10:15:00,90.5,71.6,29.90,SSE,158,4.7,9.8,54,0.00,,---,0.00,VWS V13.01,2013-08-23 14:15:00,
2013-08-23 10:20:00,90.7,71.8,29.90,South,180,1.3,9.8,54,0.00,,---,0.00,VWS V13.01,2013-08-23 14:20:00,
2013-08-23 10:25:00,90.7,71.8,29.91,SE,135,2.2,9.8,54,0.00,,---,0.00,VWS V13.01,2013-08-23 14:25:00,
2013-08-23 10:30:00,90.5,69.9,29.91,East,90,0.0,9.8,51,0.00,,---,0.00,VWS V13.01,2013-08-23 14:30:00,
2013-08-23 10:35:00,90.1,69.6,29.91,East,90,0.0,9.8,51,0.00,,---,0.00,VWS V13.01,2013-08-23 14:35:00,
2013-08-23 10:40:00,89.4,68.9,29.90,East,90,0.0,9.8,51,0.00,,---,0.00,VWS V13.01,2013-08-23 14:40:00,
2013-08-23 10:45:00,89.2,68.8,29.90,SSE,158,0.0,9.8,51,0.00,,---,0.00,VWS V13.01,2013-08-23 14:45:00,
2013-08-23 10:50:00,89.4,68.9,29.90,SE,135,0.0,9.8,51,0.00,,---,0.00,VWS V13.01,2013-08-23 14:50:00,
2013-08-23 10:55:00,89.4,68.9,29.91,SSE,158,1.3,9.8,51,0.00,,---,0.00,VWS V13.01,2013-08-23 14:55:00,
2013-08-23 11:00:00,89.6,69.1,29.91,East,90,1.6,2.5,51,0.00,,---,0.00,VWS V13.01,2013-08-23 15:00:00,
2013-08-23 11:05:00,89.4,68.9,29.91,ESE,112,1.1,4.7,51,0.00,,---,0.00,VWS V13.01,2013-08-23 15:05:00,
2013-08-23 11:10:00,89.4,68.9,29.91,ENE,68,4.3,4.7,51,0.00,,---,0.00,VWS V13.01,2013-08-23 15:10:00,
2013-08-23 11:15:00,90.0,69.4,29.90,ESE,112,2.7,5.4,51,0.00,,---,0.00,VWS V13.01,2013-08-23 15:15:00,
2013-08-23 11:20:00,90.0,69.4,29.91,ESE,112,1.6,5.4,51,0.00,,---,0.00,VWS V13.01,2013-08-23 15:20:00,
2013-08-23 11:25:00,90.0,69.4,29.91,ENE,68,0.0,5.4,51,0.00,,---,0.00,VWS V13.01,2013-08-23 15:25:00,
2013-08-23 11:30:00,89.8,69.3,29.91,SE,135,0.0,5.4,51,0.00,,---,0.00,VWS V13.01,2013-08-23 15:30:00,
2013-08-23 11:35:00,90.3,69.8,29.91,East,90,0.0,5.4,51,0.00,,---,0.00,VWS V13.01,2013-08-23 15:35:00,
2013-08-23 11:40:00,90.7,70.1,29.91,East,90,0.0,6.3,51,0.00,,---,0.00,VWS V13.01,2013-08-23 15:40:00,
2013-08-23 11:45:00,91.0,70.4,29.91,ESE,112,3.8,6.3,51,0.00,,---,0.00,VWS V13.01,2013-08-23 15:45:00,
2013-08-23 11:50:00,91.6,70.3,29.91,East,90,4.5,6.3,50,0.00,,---,0.00,VWS V13.01,2013-08-23 15:50:00,
2013-08-23 11:55:00,91.8,70.5,29.91,SE,135,3.1,6.3,50,0.00,,---,0.00,VWS V13.01,2013-08-23 15:55:00,
2013-08-23 12:00:00,92.3,71.0,29.91,ESE,112,4.5,4.5,50,0.00,,---,0.00,VWS V13.01,2013-08-23 16:00:00,
2013-08-23 12:05:00,92.8,71.5,29.91,SSE,158,3.6,4.9,50,0.00,,---,0.00,VWS V13.01,2013-08-23 16:05:00,
2013-08-23 12:10:00,93.6,72.1,29.91,ESE,112,0.0,7.6,50,0.00,,---,0.00,VWS V13.01,2013-08-23 16:10:00,
2013-08-23 12:15:00,93.9,70.6,29.91,SE,135,6.3,7.6,47,0.00,,---,0.00,VWS V13.01,2013-08-23 16:15:00,
2013-08-23 12:20:00,94.1,70.8,29.90,SE,135,0.0,8.5,47,0.00,,---,0.00,VWS V13.01,2013-08-23 16:20:00,
2013-08-23 12:25:00,94.1,70.8,29.90,ESE,112,0.0,8.5,47,0.00,,---,0.00,VWS V13.01,2013-08-23 16:25:00,
2013-08-23 12:30:00,94.5,69.2,29.90,SSE,158,7.4,10.3,44,0.00,,---,0.00,VWS V13.01,2013-08-23 16:30:00,
2013-08-23 12:35:00,94.1,68.9,29.90,East,90,0.0,10.3,44,0.00,,---,0.00,VWS V13.01,2013-08-23 16:35:00,
2013-08-23 12:40:00,94.1,68.9,29.90,ESE,112,1.3,10.7,44,0.00,,---,0.00,VWS V13.01,2013-08-23 16:40:00,
2013-08-23 12:45:00,94.3,69.0,29.90,SE,135,4.9,10.7,44,0.00,,---,0.00,VWS V13.01,2013-08-23 16:45:00,
2013-08-23 12:50:00,94.5,69.2,29.90,ESE,112,3.4,10.7,44,0.00,,---,0.00,VWS V13.01,2013-08-23 16:50:00,
2013-08-23 12:55:00,94.6,69.4,29.90,SSE,158,2.7,10.7,44,0.00,,---,0.00,VWS V13.01,2013-08-23 16:55:00,
2013-08-23 13:00:00,94.5,69.2,29.90,East,90,6.7,6.7,44,0.00,,---,0.00,VWS V13.01,2013-08-23 17:00:00,
2013-08-23 13:05:00,93.9,68.0,29.90,SE,135,4.5,10.3,43,0.00,,---,0.00,VWS V13.01,2013-08-23 17:05:00,
2013-08-23 13:10:00,94.5,68.5,29.90,SE,135,2.0,11.2,43,0.00,,---,0.00,VWS V13.01,2013-08-23 17:10:00,
2013-08-23 13:15:00,94.8,68.8,29.90,East,90,3.8,11.2,43,0.00,,---,0.00,VWS V13.01,2013-08-23 17:15:00,
2013-08-23 13:20:00,94.1,67.5,29.90,SSE,158,2.7,11.2,42,0.00,,---,0.00,VWS V13.01,2013-08-23 17:20:00,
2013-08-23 13:25:00,94.5,68.5,29.90,ESE,112,5.8,11.2,43,0.00,,---,0.00,VWS V13.01,2013-08-23 17:25:00,
2013-08-23 13:30:00,94.5,67.8,29.90,East,90,0.0,11.2,42,0.00,,---,0.00,VWS V13.01,2013-08-23 17:30:00,
2013-08-23 13:35:00,94.5,68.5,29.90,SE,135,1.8,11.2,43,0.00,,---,0.00,VWS V13.01,2013-08-23 17:35:00,
2013-08-23 13:40:00,94.6,68.7,29.90,SE,135,4.3,11.2,43,0.00,,---,0.00,VWS V13.01,2013-08-23 17:40:00,
2013-08-23 13:45:00,95.0,69.0,29.90,ESE,112,4.9,11.2,43,0.00,,---,0.00,VWS V13.01,2013-08-23 17:45:00,
2013-08-23 13:50:00,94.6,68.7,29.90,SE,135,2.7,11.2,43,0.00,,---,0.00,VWS V13.01,2013-08-23 17:50:00,
2013-08-23 13:55:00,94.1,68.2,29.89,ESE,112,9.4,11.9,43,0.00,,---,0.00,VWS V13.01,2013-08-23 17:55:00,
2013-08-23 14:00:00,93.0,68.6,29.89,SE,135,4.5,4.5,45,0.00,,---,0.00,VWS V13.01,2013-08-23 18:00:00,
2013-08-23 14:05:00,93.0,70.4,29.89,SE,135,5.8,9.6,48,0.00,,---,0.00,VWS V13.01,2013-08-23 18:05:00,
2013-08-23 14:10:00,93.4,70.8,29.89,SE,135,2.7,9.6,48,0.00,,---,0.00,VWS V13.01,2013-08-23 18:10:00,
2013-08-23 14:15:00,93.6,69.7,29.88,East,90,1.8,9.6,46,0.00,,---,0.00,VWS V13.01,2013-08-23 18:15:00,
2013-08-23 14:20:00,93.4,67.6,29.88,SE,135,4.5,11.9,43,0.00,,---,0.00,VWS V13.01,2013-08-23 18:20:00,
2013-08-23 14:25:00,93.2,66.0,29.88,SSE,158,12.1,12.1,41,0.00,,---,0.00,VWS V13.01,2013-08-23 18:25:00,
2013-08-23 14:30:00,93.2,67.4,29.88,ESE,112,4.0,12.1,43,0.00,,---,0.00,VWS V13.01,2013-08-23 18:30:00,
2013-08-23 14:35:00,93.4,68.9,29.88,ESE,112,3.1,12.1,45,0.00,,---,0.00,VWS V13.01,2013-08-23 18:35:00,
2013-08-23 14:40:00,93.0,69.2,29.88,ESE,112,4.9,12.1,46,0.00,,---,0.00,VWS V13.01,2013-08-23 18:40:00,
2013-08-23 14:45:00,92.8,69.0,29.88,East,90,4.0,12.1,46,0.00,,---,0.00,VWS V13.01,2013-08-23 18:45:00,
2013-08-23 14:50:00,92.8,70.3,29.88,SE,135,5.6,12.1,48,0.00,,---,0.00,VWS V13.01,2013-08-23 18:50:00,
2013-08-23 14:55:00,92.7,69.5,29.88,NE,45,3.6,12.1,47,0.00,,---,0.00,VWS V13.01,2013-08-23 18:55:00,
2013-08-23 15:00:00,92.3,69.8,29.88,ESE,112,2.5,12.1,48,0.00,,---,0.00,VWS V13.01,2013-08-23 19:00:00,
2013-08-23 15:05:00,92.1,69.6,29.88,ESE,112,2.7,5.1,48,0.00,,---,0.00,VWS V13.01,2013-08-23 19:05:00,
2013-08-23 15:10:00,91.9,70.1,29.88,ESE,112,0.0,7.2,49,0.00,,---,0.00,VWS V13.01,2013-08-23 19:10:00,
2013-08-23 15:15:00,91.6,69.7,29.88,SE,135,4.7,7.8,49,0.00,,---,0.00,VWS V13.01,2013-08-23 19:15:00,
2013-08-23 15:20:00,91.0,69.2,29.88,ESE,112,4.0,9.4,49,0.00,,---,0.00,VWS V13.01,2013-08-23 19:20:00,
2013-08-23 15:25:00,90.7,68.9,29.88,South,180,1.1,9.4,49,0.00,,---,0.00,VWS V13.01,2013-08-23 19:25:00,
2013-08-23 15:30:00,90.5,68.8,29.88,ESE,112,2.5,9.4,49,0.00,,---,0.00,VWS V13.01,2013-08-23 19:30:00,
2013-08-23 15:35:00,90.3,69.8,29.88,East,90,2.0,9.4,51,0.00,,---,0.00,VWS V13.01,2013-08-23 19:35:00,
2013-08-23 15:40:00,90.3,70.3,29.88,ESE,112,3.4,9.4,52,0.00,,---,0.00,VWS V13.01,2013-08-23 19:40:00,
2013-08-23 15:45:00,90.1,70.2,29.88,SSE,158,3.4,9.4,52,0.00,,---,0.00,VWS V13.01,2013-08-23 19:45:00,
2013-08-23 15:50:00,90.0,70.6,29.88,SE,135,3.6,9.4,53,0.00,,---,0.00,VWS V13.01,2013-08-23 19:50:00,
2013-08-23 15:55:00,89.4,69.5,29.87,SSE,158,4.3,9.8,52,0.00,,---,0.00,VWS V13.01,2013-08-23 19:55:00,
2013-08-23 16:00:00,89.1,68.6,29.87,NE,45,9.0,9.8,51,0.00,,---,0.00,VWS V13.01,2013-08-23 20:00:00,
2013-08-23 16:05:00,88.5,67.5,29.87,ESE,112,0.0,10.3,50,0.00,,---,0.00,VWS V13.01,2013-08-23 20:05:00,
2013-08-23 16:10:00,88.3,67.9,29.86,East,90,2.9,10.3,51,0.00,,---,0.00,VWS V13.01,2013-08-23 20:10:00,
2013-08-23 16:15:00,88.2,67.2,29.87,SE,135,2.9,10.3,50,0.00,,---,0.00,VWS V13.01,2013-08-23 20:15:00,
2013-08-23 16:20:00,88.0,67.0,29.87,ESE,112,0.0,10.3,50,0.00,,---,0.00,VWS V13.01,2013-08-23 20:20:00,
2013-08-23 16:25:00,88.0,67.0,29.88,SE,135,0.0,10.3,50,0.00,,---,0.00,VWS V13.01,2013-08-23 20:25:00,
2013-08-23 16:30:00,88.2,66.6,29.88,SE,135,2.9,10.3,49,0.00,,---,0.00,VWS V13.01,2013-08-23 20:30:00,
2013-08-23 16:35:00,88.2,66.6,29.88,ENE,68,0.0,10.3,49,0.00,,---,0.00,VWS V13.01,2013-08-23 20:35:00,
2013-08-23 16:40:00,88.2,66.6,29.88,SE,135,0.0,10.3,49,0.00,,---,0.00,VWS V13.01,2013-08-23 20:40:00,
2013-08-23 16:45:00,88.2,66.6,29.88,East,90,0.0,10.3,49,0.00,,---,0.00,VWS V13.01,2013-08-23 20:45:00,
2013-08-23 16:50:00,88.0,67.0,29.87,East,90,0.0,10.3,50,0.00,,---,0.00,VWS V13.01,2013-08-23 20:50:00,
2013-08-23 16:55:00,88.0,68.2,29.87,ESE,112,0.0,10.3,52,0.00,,---,0.00,VWS V13.01,2013-08-23 20:55:00,
2013-08-23 17:00:00,88.0,68.7,29.87,SSE,158,2.0,10.3,53,0.00,,---,0.00,VWS V13.01,2013-08-23 21:00:00,
2013-08-23 17:05:00,88.0,69.3,29.87,SE,135,0.0,3.1,54,0.00,,---,0.00,VWS V13.01,2013-08-23 21:05:00,
2013-08-23 17:10:00,88.0,69.3,29.88,SE,135,0.0,3.1,54,0.00,,---,0.00,VWS V13.01,2013-08-23 21:10:00,
2013-08-23 17:15:00,88.0,69.3,29.88,SE,135,0.0,3.8,54,0.00,,---,0.00,VWS V13.01,2013-08-23 21:15:00,
2013-08-23 17:20:00,88.0,69.3,29.88,ENE,68,0.0,4.9,54,0.00,,---,0.00,VWS V13.01,2013-08-23 21:20:00,
2013-08-23 17:25:00,87.8,69.6,29.88,NE,45,0.0,4.9,55,0.00,,---,0.00,VWS V13.01,2013-08-23 21:25:00,
2013-08-23 17:30:00,87.6,69.5,29.88,NNE,22,0.0,4.9,55,0.00,,---,0.00,VWS V13.01,2013-08-23 21:30:00,
2013-08-23 17:35:00,87.6,70.0,29.88,ENE,68,0.0,4.9,56,0.00,,---,0.00,VWS V13.01,2013-08-23 21:35:00,
2013-08-23 17:40:00,87.4,69.8,29.87,SE,135,1.8,4.9,56,0.00,,---,0.00,VWS V13.01,2013-08-23 21:40:00,
2013-08-23 17:45:00,87.3,69.7,29.87,SE,135,1.6,5.4,56,0.00,,---,0.00,VWS V13.01,2013-08-23 21:45:00,
2013-08-23 17:50:00,87.3,69.7,29.87,ENE,68,0.0,5.4,56,0.00,,---,0.00,VWS V13.01,2013-08-23 21:50:00,
2013-08-23 17:55:00,87.3,70.2,29.88,SE,135,0.0,5.4,57,0.00,,---,0.00,VWS V13.01,2013-08-23 21:55:00,
2013-08-23 18:00:00,87.3,70.2,29.88,SE,135,0.0,5.4,57,0.00,,---,0.00,VWS V13.01,2013-08-23 22:00:00,
2013-08-23 18:05:00,87.3,70.2,29.88,SSE,158,0.0,3.1,57,0.00,,---,0.00,VWS V13.01,2013-08-23 22:05:00,
2013-08-23 18:10:00,87.1,69.5,29.88,ESE,112,0.0,4.3,56,0.00,,---,0.00,VWS V13.01,2013-08-23 22:10:00,
2013-08-23 18:15:00,86.9,69.3,29.88,SE,135,0.0,4.3,56,0.00,,---,0.00,VWS V13.01,2013-08-23 22:15:00,
2013-08-23 18:20:00,87.1,70.0,29.87,East,90,0.0,4.3,57,0.00,,---,0.00,VWS V13.01,2013-08-23 22:20:00,
2013-08-23 18:25:00,86.9,69.8,29.88,SSE,158,0.0,4.3,57,0.00,,---,0.00,VWS V13.01,2013-08-23 22:25:00,
2013-08-23 18:30:00,87.1,70.0,29.87,SSE,158,0.0,4.3,57,0.00,,---,0.00,VWS V13.01,2013-08-23 22:30:00,
2013-08-23 18:35:00,86.9,69.3,29.88,ESE,112,0.0,4.3,56,0.00,,---,0.00,VWS V13.01,2013-08-23 22:35:00,
2013-08-23 18:40:00,86.9,69.8,29.88,SSE,158,0.0,4.3,57,0.00,,---,0.00,VWS V13.01,2013-08-23 22:40:00,
2013-08-23 18:45:00,86.9,69.8,29.88,SE,135,0.0,4.3,57,0.00,,---,0.00,VWS V13.01,2013-08-23 22:45:00,
2013-08-23 18:50:00,86.7,69.7,29.88,SE,135,0.0,4.3,57,0.00,,---,0.00,VWS V13.01,2013-08-23 22:50:00,
2013-08-23 18:55:00,86.7,70.2,29.88,SE,135,1.6,4.3,58,0.00,,---,0.00,VWS V13.01,2013-08-23 22:55:00,
2013-08-23 19:00:00,86.7,70.7,29.88,SE,135,0.0,4.3,59,0.00,,---,0.00,VWS V13.01,2013-08-23 23:00:00,
2013-08-23 19:05:00,86.5,70.5,29.88,SE,135,1.8,2.5,59,0.00,,---,0.00,VWS V13.01,2013-08-23 23:05:00,
2013-08-23 19:10:00,86.5,70.5,29.88,SE,135,0.0,4.9,59,0.00,,---,0.00,VWS V13.01,2013-08-23 23:10:00,
2013-08-23 19:15:00,86.4,70.3,29.88,SE,135,0.0,4.9,59,0.00,,---,0.00,VWS V13.01,2013-08-23 23:15:00,
2013-08-23 19:20:00,86.4,70.3,29.88,SE,135,0.0,4.9,59,0.00,,---,0.00,VWS V13.01,2013-08-23 23:20:00,
2013-08-23 19:25:00,86.4,70.3,29.88,SE,135,0.0,4.9,59,0.00,,---,0.00,VWS V13.01,2013-08-23 23:25:00,
2013-08-23 19:30:00,86.2,70.2,29.88,SE,135,0.0,4.9,59,0.00,,---,0.00,VWS V13.01,2013-08-23 23:30:00,
2013-08-23 19:35:00,86.2,70.7,29.88,SE,135,0.0,4.9,60,0.00,,---,0.00,VWS V13.01,2013-08-23 23:35:00,
2013-08-23 19:40:00,86.0,70.5,29.88,SE,135,0.0,4.9,60,0.00,,---,0.00,VWS V13.01,2013-08-23 23:40:00,
2013-08-23 19:45:00,85.8,70.3,29.88,South,180,0.0,4.9,60,0.00,,---,0.00,VWS V13.01,2013-08-23 23:45:00,
2013-08-23 19:50:00,85.8,70.8,29.88,SSE,158,0.0,4.9,61,0.00,,---,0.00,VWS V13.01,2013-08-23 23:50:00,
2013-08-23 19:55:00,85.6,70.7,29.88,SE,135,0.0,4.9,61,0.00,,---,0.00,VWS V13.01,2013-08-23 23:55:00,
2013-08-23 20:00:00,85.1,70.6,29.88,SE,135,0.0,4.9,62,0.00,,---,0.00,VWS V13.01,2013-08-24 00:00:00,
2013-08-23 20:05:00,85.3,70.8,29.88,ENE,68,0.0,1.1,62,0.00,,---,0.00,VWS V13.01,2013-08-24 00:05:00,
2013-08-23 20:10:00,85.1,70.6,29.89,East,90,0.0,1.1,62,0.00,,---,0.00,VWS V13.01,2013-08-24 00:10:00,
2013-08-23 20:15:00,84.9,71.4,29.89,East,90,0.0,1.1,64,0.00,,---,0.00,VWS V13.01,2013-08-24 00:15:00,
2013-08-23 20:20:00,84.7,71.2,29.89,ESE,112,0.0,1.3,64,0.00,,---,0.00,VWS V13.01,2013-08-24 00:20:00,
2013-08-23 20:25:00,84.7,71.2,29.89,ESE,112,0.0,1.3,64,0.00,,---,0.00,VWS V13.01,2013-08-24 00:25:00,
2013-08-23 20:30:00,84.7,71.2,29.89,ESE,112,0.0,1.3,64,0.00,,---,0.00,VWS V13.01,2013-08-24 00:30:00,
2013-08-23 20:35:00,84.6,71.5,29.90,East,90,0.0,1.3,65,0.00,,---,0.00,VWS V13.01,2013-08-24 00:35:00,
2013-08-23 20:40:00,84.4,71.3,29.90,SE,135,0.0,1.3,65,0.00,,---,0.00,VWS V13.01,2013-08-24 00:40:00,
2013-08-23 20:45:00,84.4,71.3,29.90,SE,135,0.0,1.3,65,0.00,,---,0.00,VWS V13.01,2013-08-24 00:45:00,
2013-08-23 20:50:00,84.2,71.2,29.91,SE,135,0.0,1.3,65,0.00,,---,0.00,VWS V13.01,2013-08-24 00:50:00,
2013-08-23 20:55:00,84.2,71.2,29.91,SE,135,0.0,1.3,65,0.00,,---,0.00,VWS V13.01,2013-08-24 00:55:00,
2013-08-23 21:00:00,84.2,71.2,29.91,East,90,0.0,1.3,65,0.00,,---,0.00,VWS V13.01,2013-08-24 01:00:00,
2013-08-23 21:05:00,84.2,71.6,29.91,East,90,0.0,0.0,66,0.00,,---,0.00,VWS V13.01,2013-08-24 01:05:00,
2013-08-23 21:10:00,84.0,71.4,29.91,East,90,0.0,0.0,66,0.00,,---,0.00,VWS V13.01,2013-08-24 01:10:00,
2013-08-23 21:14:00,84.0,71.4,29.91,East,90,0.0,0.0,66,0.00,,---,0.00,VWS V13.01,2013-08-24 01:14:00,
2013-08-23 21:19:00,84.0,71.4,29.91,East,90,0.0,0.0,66,0.00,,---,0.00,VWS V13.01,2013-08-24 01:19:00,
2013-08-23 21:24:00,83.8,71.3,29.91,East,90,0.0,0.0,66,0.00,,---,0.00,VWS V13.01,2013-08-24 01:24:00,
2013-08-23 21:29:00,83.8,71.3,29.91,East,90,0.0,0.0,66,0.00,,---,0.00,VWS V13.01,2013-08-24 01:29:00,
2013-08-23 21:34:00,83.8,71.3,29.91,East,90,0.0,0.0,66,0.00,,---,0.00,VWS V13.01,2013-08-24 01:34:00,
2013-08-23 21:39:00,83.8,71.7,29.91,East,90,0.0,0.0,67,0.00,,---,0.00,VWS V13.01,2013-08-24 01:39:00,
2013-08-23 21:44:00,83.7,71.6,29.91,East,90,0.0,0.0,67,0.00,,---,0.00,VWS V13.01,2013-08-24 01:44:00,
2013-08-23 21:49:00,83.7,71.6,29.92,East,90,0.0,0.0,67,0.00,,---,0.00,VWS V13.01,2013-08-24 01:49:00,
2013-08-23 21:54:00,83.7,71.6,29.92,SE,135,0.0,0.0,67,0.00,,---,0.00,VWS V13.01,2013-08-24 01:54:00,
2013-08-23 21:59:00,83.7,71.6,29.92,SE,135,0.0,0.0,67,0.00,,---,0.00,VWS V13.01,2013-08-24 01:59:00,
2013-08-23 22:04:00,83.7,72.0,29.92,SE,135,0.0,0.0,68,0.00,,---,0.00,VWS V13.01,2013-08-24 02:04:00,
2013-08-23 22:09:00,83.7,72.0,29.92,SE,135,0.0,0.0,68,0.00,,---,0.00,VWS V13.01,2013-08-24 02:09:00,
2013-08-23 22:14:00,83.7,72.0,29.93,SE,135,0.0,0.0,68,0.00,,---,0.00,VWS V13.01,2013-08-24 02:14:00,
2013-08-23 22:19:00,83.7,72.0,29.92,SE,135,0.0,0.0,68,0.00,,---,0.00,VWS V13.01,2013-08-24 02:19:00,
2013-08-23 22:24:00,83.5,71.8,29.92,SE,135,0.0,0.0,68,0.00,,---,0.00,VWS V13.01,2013-08-24 02:24:00,
2013-08-23 22:29:00,83.3,71.6,29.93,SE,135,0.0,0.0,68,0.00,,---,0.00,VWS V13.01,2013-08-24 02:29:00,
2013-08-23 22:34:00,83.3,71.6,29.92,SE,135,0.0,0.0,68,0.00,,---,0.00,VWS V13.01,2013-08-24 02:34:00,
2013-08-23 22:39:00,83.3,71.6,29.92,SE,135,0.0,0.0,68,0.00,,---,0.00,VWS V13.01,2013-08-24 02:39:00,
2013-08-23 22:44:00,83.3,72.1,29.92,SE,135,0.0,0.0,69,0.00,,---,0.00,VWS V13.01,2013-08-24 02:44:00,
2013-08-23 22:49:00,83.3,72.1,29.92,SE,135,0.0,0.0,69,0.00,,---,0.00,VWS V13.01,2013-08-24 02:49:00,
2013-08-23 22:54:00,83.3,72.1,29.92,SE,135,0.0,0.0,69,0.00,,---,0.00,VWS V13.01,2013-08-24 02:54:00,
2013-08-23 22:59:00,83.3,72.1,29.92,SE,135,0.0,0.0,69,0.00,,---,0.00,VWS V13.01,2013-08-24 02:59:00,
2013-08-23 23:04:00,83.3,72.1,29.92,ESE,112,0.0,0.0,69,0.00,,---,0.00,VWS V13.01,2013-08-24 03:04:00,
2013-08-23 23:09:00,83.1,71.9,29.92,SE,135,0.0,0.0,69,0.00,,---,0.00,VWS V13.01,2013-08-24 03:09:00,
2013-08-23 23:14:00,83.1,71.9,29.92,SE,135,0.0,0.0,69,0.00,,---,0.00,VWS V13.01,2013-08-24 03:14:00,
2013-08-23 23:19:00,83.3,72.1,29.92,SE,135,0.0,0.0,69,0.00,,---,0.00,VWS V13.01,2013-08-24 03:19:00,
2013-08-23 23:24:00,83.1,71.9,29.92,SE,135,0.0,0.0,69,0.00,,---,0.00,VWS V13.01,2013-08-24 03:24:00,
2013-08-23 23:29:00,83.1,71.9,29.92,SE,135,0.0,0.0,69,0.00,,---,0.00,VWS V13.01,2013-08-24 03:29:00,
2013-08-23 23:34:00,82.8,71.6,29.92,SE,135,0.0,0.0,69,0.00,,---,0.00,VWS V13.01,2013-08-24 03:34:00,
2013-08-23 23:39:00,82.8,72.0,29.92,SSE,158,0.0,1.8,70,0.00,,---,0.00,VWS V13.01,2013-08-24 03:39:00,
2013-08-23 23:44:00,82.9,72.2,29.92,SSE,158,0.0,1.8,70,0.00,,---,0.00,VWS V13.01,2013-08-24 03:44:00,
2013-08-23 23:49:00,82.9,72.2,29.92,SSE,158,0.0,1.8,70,0.00,,---,0.00,VWS V13.01,2013-08-24 03:49:00,
2013-08-23 23:54:00,83.1,72.3,29.92,East,90,0.0,1.8,70,0.00,,---,0.00,VWS V13.01,2013-08-24 03:54:00,
2013-08-23 23:59:00,82.9,72.2,29.93,East,90,0.0,1.8,70,0.00,,---,0.00,VWS V13.01,2013-08-24 03:59:00,